sat.trackr.live / text

‹ back to catalog

STARLINK-35854

NORAD 68214 · 2026-053H

PAYLOAD ACTIVE UNKNOWN

§ Identity

Operator
Country
US
Launch date
2026-03-17
Launch site
AFWTR
Launch vehicle
Mass (kg)
RCS (m²)

Purposes: comms

External: N2YO · Heavens-Above · Gunter

§ Orbital elements

Epoch: 2026-05-25T02:47:29.401728Z

Period
93.91 min
Inclination
97.2859°
Eccentricity
0.0000797
Mean motion
15.33405143 rev/d
Perigee alt
465.1 km
Apogee alt
466.2 km
Semi-major
6,843.8 km
B*
-1.2354e-4
RAAN
20.6054°
Arg perigee
128.9095°
Mean anomaly
231.2219°
Rev number
1,191

§ Raw data

STARLINK-358541 68214U 26053H   26145.11631252 -.00004056  00000+0 -12354-3 0  99902 68214  97.2859  20.6054 0000797 128.9095 231.2219 15.33405143 11918

JSON: /api/v1/satellites/68214 · /tle

For live sub-satellite position, see the globe view (requires WebGL).

§ Visibility from observer

Set your observer location to see the next 7 days of passes ≥ 10°. The values pass through the URL so the page stays shareable.

No JS? Fill the form by hand. The geolocation button needs JavaScript.